Simultaneous Nadir Overpasses (SNOs) Predictions

Prediction of SNOs between LANDSAT-8 and METOP-A Satellite Orbit:

Table of predicted SNOs for the next 14.0 days since TLE Epoch: 2/23/2015
Index Date (LANDSAT-8) Time (LANDSAT-8) Lat,Lon (LANDSAT-8) SZA (LANDSAT-8 ) Date (METOP-A) Time (METOP-A) Lat,Lon (METOP-A) SZA (METOP-A ) Distance(km) Time Diff (sec)
1 02/25/2015 04:31:59 81.13, 151.58 92.00 02/25/2015 04:31:54 81.13, 151.62 92.00 0.59 5
2 02/25/2015 05:21:25 -81.15, -40.46 87.97 02/25/2015 05:22:33 -81.15, -40.44 87.94 0.43 68
3 02/27/2015 23:16:48 -81.11, 49.98 89.08 02/27/2015 23:15:38 -81.11, 50.01 89.11 0.57 70
4 02/28/2015 00:06:13 81.13,-141.97 90.97 02/28/2015 00:06:17 81.13,-141.95 90.97 0.33 4
5 03/02/2015 18:51:01 -81.12, 116.63 90.11 03/02/2015 18:50:00 -81.12, 116.80 90.11 2.96 61
6 03/02/2015 19:40:27 81.12, -75.70 89.89 03/02/2015 19:40:40 81.13, -75.58 89.91 2.28 13
7 03/05/2015 14:25:15 -81.10,-177.26 91.22 03/05/2015 14:24:24 -81.10,-177.21 91.23 1.21 51
8 03/05/2015 15:14:40 81.12, -9.25 88.83 03/05/2015 15:15:03 81.13, -9.25 88.84 0.52 23
9 03/08/2015 09:59:26 -81.11,-110.61 92.26 03/08/2015 09:58:45 -81.11,-110.52 92.27 1.59 41




NCC Satellite Simultaneous Nadir Overpasses (SNOs) Prediction Service
